This is the latest recevied weather packets stored in our database for station/object IK0TIX. If no packets are shown the sender has not sent any weather packets the latest 10 day(s).
| Time | Temp. | Humidity | Pressure | Rain* | Wind** | Luminosity | Snow |
|---|---|---|---|---|---|---|---|
| 1777728303 | 23.89° C | 33% | 1022.2 hPa | 0 mm | - | - | - |
| 1777727383 | 23.89° C | 34% | 1022.3 hPa | 0 mm | - | - | - |
| 1777724974 | 23.89° C | 27% | 1022.5 hPa | 0 mm | - | - | - |
| 1777723492 | 23.33° C | 28% | 1022.7 hPa | 0 mm | - | - | - |
| 1777722287 | 22.22° C | 28% | 1022.9 hPa | 0 mm | - | - | - |
| 1777722002 | 22.78° C | 28% | 1022.9 hPa | 0 mm | - | - | - |
| 1777720500 | 22.22° C | 29% | 1023.2 hPa | 0 mm | - | - | - |
| 1777719880 | 22.22° C | 28% | 1023.4 hPa | 0 mm | - | - | - |
| 1777717787 | 21.67° C | 30% | 1023.8 hPa | 0 mm | - | - | - |
| 1777712990 | 18.89° C | 35% | 1024.4 hPa | 0 mm | - | - | - |
| 1777712684 | 18.89° C | 33% | 1024.4 hPa | 0 mm | - | - | - |
| 1777711787 | 18.33° C | 39% | 1024.5 hPa | 0 mm | - | - | - |
| 1777710579 | 17.78° C | 38% | 1024.6 hPa | 0 mm | - | - | - |
| 1777709986 | 17.78° C | 40% | 1024.6 hPa | 0 mm | - | - | - |
| 1777708471 | 16.11° C | 43% | 1024.7 hPa | 0 mm | - | - | - |
| 1777706975 | 15.56° C | 44% | 1024.9 hPa | 0 mm | - | - | - |
| 1777706382 | 15° C | 44% | 1024.9 hPa | 0 mm | - | - | - |
| 1777705184 | 14.44° C | 44% | 1024.9 hPa | 0 mm | - | - | - |
| 1777703374 | 13.89° C | 45% | 1024.7 hPa | 0 mm | - | - | - |
| 1777702487 | 13.33° C | 47% | 1024.8 hPa | 0 mm | - | - | - |
| 1777699483 | 12.78° C | 50% | 1024.8 hPa | 0 mm | - | - | - |
| 1777695572 | 11.11° C | 49% | 1024.6 hPa | 0 mm | - | - | - |
| 1777694685 | 11.67° C | 48% | 1024.7 hPa | 0 mm | - | - | - |
| 1777693779 | 11.67° C | 47% | 1024.6 hPa | 0 mm | - | - | - |
| 1777691995 | 12.22° C | 48% | 1024.4 hPa | 0 mm | - | - | - |
* Rain latest hour (hover to see other rain measurements)
** Current wind speed in m/s (hover to see current wind gust speed)